Flag for Germany Weather past 2 weeks in Kerpen, North Rhine-Westphalia, Germany

Now
70 °F

Sprinkles. Scattered clouds.


Feels Like: 70 °F
Forecast: 63 / 75 °F
Wind: 18 mph from Southwest

Location: Noervenich

Current Time: Jul 28, 2014 at 3:48:01 PM

Latest Report: Jul 28, 2014 at 2:20 PM


Visibility: N/A

Pressure: 29.86 "Hg

Humidity: 78%

Dew point: 63 °F

Location of KerpenLocation

Historic Weather in Kerpen — Graph

°F

Kerpen temperature yesterday

Maximum temperature yesterday: 79 °F (at 5:20 PM)
Minimum temperature yesterday: 61 °F (at 3:20 AM)
Average temperature yesterday: 70 °F

Past Weeks' High & Low Weather Summary

 TemperatureHumidityPressure
High93 °F (Jul 18, 5:20 PM)100% (Jul 13, 9:20 PM)30.18 "Hg (Jul 13, 9:20 PM)
Low55 °F (Jul 14, 5:20 AM)28% (Jul 18, 5:20 PM)29.74 "Hg (Jul 13, 4:20 PM)
Average70 °F74%29.98 "Hg
* Reported Jul 13 2:20 PM — Jul 28 2:20 PM, Kerpen, Weather by CustomWeather, © 2014

Note: Actual official high and low records may vary slightly from our data, if they occured in-between our weather recording intervals... More about our weather records

Advertising

Kerpen weather history for previous 24 hours

 ConditionsComfort  
Time TempWeatherWind HumidityBarometerVisibility
2:20 PM
Jul 28
70 °FSprinkles. Scattered clouds.18 mph78%29.86 "HgN/A
1:20 PM75 °FScattered clouds.6 mph69%29.83 "HgN/A
12:20 PM79 °FScattered clouds.5 mph54%29.83 "HgN/A
11:20 AM77 °FScattered clouds.5 mph61%29.86 "HgN/A
10:20 AM75 °FScattered clouds.5 mph65%29.86 "HgN/A
9:20 AM70 °FScattered clouds.5 mph78%29.86 "HgN/A
8:20 AM66 °FScattered clouds.1 mph88%29.89 "HgN/A
7:20 AM64 °FPartly sunny.1 mph94%29.89 "HgN/A
6:20 AM64 °FPassing clouds.1 mph94%29.89 "HgN/A
5:20 AM64 °FPassing clouds.1 mph94%29.89 "HgN/A
4:20 AM64 °FPassing clouds.No wind94%29.92 "HgN/A
3:20 AM66 °FPartly cloudy.2 mph88%29.95 "HgN/A
2:20 AM66 °FPartly cloudy.3 mph88%29.95 "HgN/A
1:20 AM66 °FPassing clouds.5 mph88%29.98 "HgN/A
12:20 AM66 °FPartly cloudy.2 mph83%29.98 "HgN/A
11:20 PM
Jul 27
68 °FPartly cloudy.No wind78%29.98 "HgN/A
10:20 PM70 °FBroken clouds.No wind73%29.98 "HgN/A
9:20 PM72 °FPartly sunny.2 mph69%29.98 "HgN/A
8:20 PM75 °FPartly sunny.2 mph61%29.98 "HgN/A
7:20 PM77 °FWarm.3 mph54%29.98 "Hg3 mi
6:20 PM79 °FWarm.3 mph51%29.98 "Hg3 mi
5:20 PM79 °FWarm.5 mph51%29.98 "Hg3 mi
4:20 PM77 °FWarm.5 mph54%29.98 "Hg3 mi
3:20 PM77 °FWarm.5 mph57%30.01 "Hg3 mi
Weather by CustomWeather, © 2014

See weather overviewHow to use our weather pages